Theta_e
313 313 313 313 314 315 315 316 316 315 314 313 311 309 309 311 314 315 318 321 321 320 320 328 329 332 340 345 350 343 353 354 353 354 354 348 348 349 340 344 345 345 344 343 342
311 312 312 313 314 315 315 316 317 318 314 313 313 309 309 310 314 321 322 321 319 316 319 328 329 332 341 342 345 351 354 354 348 349 353 350 348 344 344 342 345 344 344 342 343
311 311 311 311 313 315 315 315 316 318 319 314 312 309 309 311 324 327 322 320 315 316 324 327 329 330 340 341 342 348 356 350 347 347 348 349 349 346 343 343 343 344 344 343 343
311 311 311 311 313 314 315 315 316 318 321 318 312 309 311 317 332 331 324 317 314 317 325 325 327 331 338 341 341 349 349 350 348 346 344 349 349 346 346 344 344 344 343 344 343
311 311 311 311 313 315 316 316 318 319 321 320 313 311 316 330 329 329 319 316 314 318 325 325 329 332 338 339 342 349 349 348 348 344 345 346 348 349 345 342 344 345 344 343 343
310 311 311 311 314 316 317 320 321 321 321 316 312 314 319 331 327 329 322 314 319 322 322 325 329 333 336 339 346 344 348 347 346 345 347 347 347 347 343 343 344 343 343 343 342
310 310 310 312 315 316 320 322 322 322 318 313 318 322 330 329 325 323 323 320 320 321 323 324 328 331 336 339 345 346 351 349 350 348 347 342 346 348 347 347 342 343 343 342 342
309 310 311 312 315 318 321 322 322 322 320 320 321 325 327 325 325 325 323 321 319 319 321 322 325 329 333 340 340 346 350 356 351 350 345 345 349 345 344 346 343 342 342 343 343
309 310 311 313 316 321 322 322 323 322 322 321 326 330 326 323 323 325 326 325 320 318 320 321 322 327 330 340 344 344 349 353 345 349 347 345 347 340 341 344 346 343 344 346 341
309 310 311 312 317 322 323 322 323 322 321 321 323 329 327 326 324 324 325 320 321 320 320 321 324 329 331 336 344 346 351 351 351 351 348 347 346 342 338 343 345 344 343 344 345
309 310 312 312 318 322 324 327 330 328 331 327 326 325 325 322 321 323 323 321 320 321 322 321 326 328 330 338 341 344 346 348 347 348 345 343 345 342 339 341 344 345 347 345 344
309 310 312 312 319 322 326 328 326 327 329 326 326 325 324 324 323 323 321 320 321 322 323 324 326 328 330 337 341 344 348 349 348 347 349 348 349 344 343 342 343 343 345 347 345
308 310 312 313 321 324 326 327 326 326 329 327 326 325 325 325 325 323 323 324 323 324 324 327 328 328 330 334 336 336 343 346 345 344 344 350 352 349 344 343 343 342 343 345 344
308 309 312 316 322 327 327 326 325 327 330 329 328 325 326 325 324 323 325 324 325 326 325 327 330 330 331 331 331 332 338 338 340 339 350 343 353 351 346 345 343 340 340 343 344
310 309 311 314 323 324 327 325 325 326 335 328 327 325 325 326 324 324 324 324 326 327 326 328 329 329 330 330 331 332 336 336 336 338 338 342 345 354 346 346 346 341 338 342 342
314 309 310 315 318 323 324 325 325 330 332 327 327 327 327 326 325 324 323 324 325 326 325 327 327 327 327 329 329 331 332 334 337 337 338 339 344 359 351 350 347 343 341 342 341
313 310 310 314 323 325 325 325 329 331 327 327 327 327 329 327 326 326 325 325 326 327 327 326 326 326 326 327 328 328 329 332 338 343 346 342 341 351 350 350 347 346 345 342 342
313 310 310 312 319 323 324 328 331 332 326 327 326 326 328 328 328 327 327 327 326 327 329 330 327 326 326 325 329 330 328 331 347 347 346 339 345 345 340 346 345 345 343 341 343
313 313 312 314 313 320 325 328 331 331 326 325 326 327 328 327 328 328 329 330 329 329 330 333 329 328 328 328 329 333 332 333 334 340 339 343 343 342 342 347 345 343 344 344 345
313 316 323 321 321 322 327 326 330 328 325 324 325 328 330 330 328 329 330 329 329 328 328 330 332 331 329 329 329 330 334 336 336 345 346 348 345 346 349 349 347 345 344 345 345
313 322 323 323 322 324 328 328 329 327 324 324 325 327 328 330 329 330 331 331 329 329 328 328 329 331 329 329 329 331 332 332 335 337 343 347 350 342 344 344 348 342 341 341 345
319 323 326 324 323 325 328 328 329 328 325 324 324 326 327 329 329 328 329 331 329 328 326 328 330 331 331 331 331 331 331 330 334 347 342 342 342 337 338 340 342 342 342 343 347
320 321 326 325 324 324 326 329 329 329 326 324 325 325 326 326 328 328 328 328 328 325 330 330 330 329 329 331 331 332 332 330 332 336 342 340 340 336 334 342 342 342 341 349 348
321 323 325 327 325 323 327 330 330 327 325 325 325 325 326 326 326 328 328 328 327 325 324 324 324 325 328 329 331 332 333 332 332 336 338 336 335 335 337 342 344 341 338 342 343
322 323 323 328 328 325 324 328 331 329 325 324 326 325 325 327 327 327 325 326 327 324 324 323 325 326 326 326 327 328 329 332 332 332 337 336 337 336 334 336 348 344 338 338 337
324 324 324 327 328 330 322 325 330 329 328 326 325 325 325 326 328 329 327 327 326 327 327 326 328 327 326 325 326 324 323 326 330 331 332 335 337 337 337 341 348 348 348 345 339
324 323 323 323 324 327 329 326 326 328 329 327 326 326 326 325 326 326 325 324 326 326 326 327 328 327 326 324 325 327 327 327 328 329 332 332 342 333 333 338 347 348 348 351 351
Wind_Speed
9 10 10 10 10 11 11 11 10 9 8 7 5 3 3 4 6 5 4 9 13 11 8 2 10 11 13 18 14 15 5 4 5 1 1 9 7 15 21 6 17 13 25 23 21
9 9 9 9 9 10 10 11 11 10 9 7 6 3 2 3 7 10 14 12 13 10 9 6 9 9 15 15 6 9 6 8 9 12 7 12 5 11 12 11 20 27 25 22 20
9 10 9 8 8 9 10 11 11 11 9 7 5 2 2 4 3 6 13 14 12 11 9 10 12 12 19 20 2 12 7 16 12 13 3 11 10 8 6 10 18 30 25 21 19
9 10 10 8 8 9 10 11 12 11 9 7 3 2 3 5 1 1 9 11 11 13 9 10 11 16 19 8 13 4 10 14 14 11 4 5 12 18 10 5 26 27 23 21 19
9 10 10 8 8 9 11 12 13 11 9 6 2 2 5 5 3 9 4 8 10 11 8 10 12 14 11 16 8 18 13 20 14 15 9 4 13 10 17 19 15 24 21 20 19
9 10 10 9 8 9 11 13 13 9 8 3 2 4 3 7 4 4 3 6 8 8 9 11 12 12 9 12 9 9 22 22 22 18 9 6 7 8 8 10 20 22 21 19 16
9 10 9 8 8 10 13 12 8 8 8 5 6 1 5 1 1 2 5 5 6 10 9 9 13 11 9 3 8 10 16 14 17 13 8 10 4 4 15 19 17 21 22 16 16
9 9 9 7 8 11 13 6 4 5 6 4 1 5 2 2 3 3 4 5 8 9 10 7 7 13 16 3 5 11 14 9 8 14 4 4 2 15 17 19 9 20 16 14 14
9 9 9 7 8 10 10 3 2 1 1 3 2 6 3 4 6 6 4 4 6 8 9 7 8 15 20 12 15 7 5 7 1 4 6 1 6 16 18 20 22 16 18 15 10
9 9 8 6 7 9 8 1 3 5 4 5 7 8 6 4 4 5 3 3 6 7 8 10 9 12 14 14 1 4 5 9 5 11 9 11 12 11 26 12 19 2 18 18 24
9 9 8 6 5 7 9 4 6 5 8 11 3 1 4 2 4 6 5 5 7 8 11 13 10 13 17 10 7 13 12 11 11 14 17 10 11 16 29 19 17 12 5 16 20
9 9 8 5 4 6 8 6 10 8 5 2 1 5 2 4 7 5 6 9 8 11 14 8 13 16 16 4 21 14 17 9 12 18 11 13 10 11 16 15 16 17 12 6 7
10 8 7 5 5 5 6 8 10 9 9 5 1 6 6 9 4 8 11 5 9 13 10 13 10 15 9 1 9 9 12 14 6 13 8 15 8 11 11 15 21 20 20 6 9
11 8 7 4 4 5 6 6 9 8 6 10 10 6 6 4 6 6 7 7 5 9 9 11 7 3 5 10 9 13 11 10 13 8 5 12 2 17 15 15 20 28 20 20 11
12 9 8 7 6 7 6 9 11 7 5 4 7 3 3 8 9 8 4 6 11 4 6 6 3 5 12 12 12 5 2 6 11 9 9 11 9 10 17 16 20 27 27 21 21
13 10 8 6 13 8 11 12 11 7 2 7 8 8 12 6 6 6 7 7 9 4 8 12 3 8 12 9 10 11 8 7 12 10 11 14 9 13 15 23 23 24 25 26 29
15 12 11 13 9 4 9 11 7 8 3 6 7 6 11 8 8 9 9 11 8 8 12 13 12 9 10 7 7 9 13 11 8 4 10 7 8 8 23 19 22 21 27 30 32
15 13 13 15 9 9 8 9 11 8 4 7 3 2 6 4 10 6 8 11 4 11 11 8 11 12 10 12 13 12 15 13 6 2 4 27 7 4 3 21 16 25 31 29 30
14 9 12 10 14 9 10 10 15 10 3 1 9 8 8 6 6 3 7 6 7 11 9 7 4 7 6 7 14 7 11 14 8 8 6 10 6 11 9 20 21 25 28 28 33
15 9 15 9 11 10 9 16 19 7 4 3 11 9 6 12 7 9 3 7 2 1 10 13 6 6 9 5 12 14 5 10 8 2 8 4 4 5 5 17 13 14 15 15 28
11 8 10 13 11 14 11 16 18 7 3 7 8 10 9 4 4 9 6 6 3 2 3 10 9 3 3 8 10 7 8 5 3 4 8 2 2 3 15 16 18 23 21 21 36
11 9 13 13 13 17 14 20 24 3 9 9 5 13 9 6 3 7 2 8 10 10 10 12 9 11 12 5 3 3 8 13 7 7 7 8 1 6 15 30 20 12 3 1 9
8 18 10 14 11 13 20 22 25 10 9 8 6 5 5 8 3 11 3 13 6 6 10 10 5 9 10 7 7 7 7 8 12 7 4 2 6 6 14 23 16 12 6 3 9
8 5 11 14 22 20 19 19 16 10 17 9 6 3 5 7 8 5 3 3 9 4 8 5 11 12 11 9 6 9 15 12 4 6 4 10 13 10 11 22 19 14 12 5 9
7 9 13 6 12 17 21 17 15 14 15 14 7 8 9 7 9 10 8 4 11 12 4 6 10 11 13 15 15 16 16 9 12 8 10 7 12 5 3 19 15 19 17 11 4
9 18 17 20 21 12 16 19 20 12 14 12 13 10 9 6 8 3 3 3 6 10 5 10 9 9 12 14 14 16 16 18 12 12 13 13 14 6 13 37 8 8 8 15 8
14 14 14 12 17 13 12 15 18 18 13 13 14 13 12 10 11 5 7 10 14 6 8 6 6 6 12 14 15 13 10 12 15 14 14 17 5 9 8 23 2 3 2 5 5
Wind_Direction
34 29 25 24 22 20 20 19 13 5 355 348 340 311 270 240 225 227 219 228 232 260 217 238 252 263 264 262 216 89 351 329 141 130 102 90 42 91 135 142 129 111 144 142 146
26 21 18 15 13 11 8 9 8 5 359 348 334 322 272 234 220 240 239 244 239 239 209 241 238 243 254 259 178 96 185 201 158 147 294 69 118 116 142 155 132 124 130 141 156
18 13 10 6 3 0 360 1 0 359 357 354 339 317 230 204 262 189 229 253 222 212 191 261 268 269 264 258 63 153 126 96 143 130 43 47 322 125 195 150 122 129 142 153 160
12 8 2 358 356 353 351 354 353 353 351 347 343 285 216 188 40 12 281 225 200 189 250 258 253 257 255 330 290 113 88 128 133 139 85 21 343 41 77 33 136 139 144 162 168
6 1 357 355 354 350 348 348 348 347 345 339 317 191 180 264 10 320 228 202 181 190 240 236 242 248 271 275 66 48 98 107 118 149 136 85 356 339 113 150 143 141 148 175 174
1 356 354 353 352 348 346 345 347 355 356 352 153 171 254 249 7 324 146 177 180 215 233 237 250 277 308 252 51 133 247 121 131 137 62 83 5 331 25 125 134 142 158 176 175
356 352 352 349 347 345 344 343 359 20 32 90 126 220 249 68 90 114 163 191 215 220 241 242 263 283 264 337 348 183 108 118 121 125 98 101 360 338 335 352 144 152 166 169 197
353 350 347 344 341 342 344 352 18 37 74 120 345 324 356 183 194 192 198 217 219 227 252 282 252 281 285 196 141 280 163 126 108 108 118 87 81 294 325 341 178 161 155 167 176
349 347 342 335 335 341 349 356 54 357 172 189 286 309 147 253 214 192 209 248 212 226 233 265 257 254 260 204 230 315 57 102 89 228 118 260 146 236 287 334 307 156 157 186 208
340 341 337 325 329 345 359 348 300 199 202 243 250 266 202 149 145 198 218 206 203 213 229 233 231 241 238 238 156 123 3 50 126 168 153 174 167 151 253 273 291 243 237 167 182
333 335 330 317 324 346 351 306 290 235 218 291 64 343 140 66 143 195 199 211 216 206 225 198 222 227 243 122 344 132 131 148 148 158 143 139 154 198 199 231 280 280 236 217 180
329 328 323 302 299 321 342 316 11 336 294 103 143 100 258 159 140 164 191 216 199 216 226 170 234 248 249 342 169 156 116 305 171 168 194 166 167 197 201 219 239 259 289 285 290
325 317 313 287 286 302 334 325 340 331 279 118 23 81 120 218 102 145 208 219 225 234 212 238 221 226 251 258 272 217 146 190 157 186 133 148 145 184 231 237 202 231 258 235 228
323 309 302 254 298 308 276 322 331 326 273 147 195 113 183 204 126 156 256 257 234 228 206 253 111 49 264 258 250 267 177 172 187 189 189 233 234 192 206 227 218 208 215 243 256
321 302 287 252 264 274 308 315 317 302 266 113 95 76 187 246 127 167 219 246 259 258 259 210 150 245 253 243 259 267 331 275 296 294 272 207 267 171 181 216 227 219 200 202 219
318 298 272 273 256 264 299 306 304 243 237 130 138 191 207 183 135 99 196 253 296 275 229 284 12 231 240 245 261 295 278 283 265 260 260 254 235 158 180 217 220 226 209 193 192
314 293 260 234 212 264 286 300 248 255 107 148 188 177 231 150 143 200 193 207 222 206 206 209 208 229 262 270 244 249 258 250 230 313 323 346 237 129 200 212 212 193 208 205 205
311 287 259 240 225 272 285 257 265 277 295 85 270 207 238 175 140 161 204 238 195 270 298 262 177 184 191 243 250 204 244 257 176 199 272 290 3 85 149 173 168 177 185 191 206
316 295 266 234 226 231 251 233 229 280 36 303 152 237 197 171 297 242 254 42 60 1 331 333 112 144 247 217 255 331 242 306 297 86 227 262 72 271 106 144 152 169 187 198 201
319 269 252 210 203 205 233 251 290 319 2 314 278 208 288 167 194 202 188 105 203 145 311 307 277 238 193 215 269 278 11 299 309 70 250 58 104 324 358 135 146 163 164 196 221
309 257 168 179 192 220 232 240 251 159 214 271 266 291 264 290 224 288 127 142 153 21 322 302 307 311 322 215 256 225 225 235 86 70 306 338 103 326 307 301 167 166 166 189 213
284 266 195 184 205 227 232 243 267 245 164 264 289 300 296 296 240 257 357 56 57 344 310 337 306 295 285 287 76 113 287 291 271 102 294 326 314 84 249 258 150 106 90 237 178
281 247 198 200 230 233 232 249 256 210 210 219 250 233 337 289 260 285 21 98 81 308 27 354 287 260 262 284 206 276 234 251 335 149 187 126 284 264 310 293 138 128 102 136 166
283 263 190 210 242 253 247 230 243 209 266 217 245 235 260 241 252 280 237 178 123 94 28 315 276 284 302 328 253 255 268 309 309 282 196 237 278 213 274 272 136 139 122 110 209
250 264 294 254 207 236 259 270 256 229 206 255 243 249 243 246 231 194 233 193 179 142 220 252 270 290 304 309 315 307 295 244 283 234 282 312 320 125 205 269 167 159 138 121 126
284 332 330 300 292 282 223 252 263 213 212 197 243 234 250 253 283 350 357 279 286 172 189 236 273 280 281 283 274 267 268 277 243 257 262 152 230 69 51 221 206 175 173 168 131
320 325 300 284 289 273 255 242 242 267 262 233 215 212 235 216 244 37 10 300 290 246 269 271 287 323 291 309 305 288 278 278 281 261 244 263 60 80 23 351 330 339 239 135 138